Regional Weather Roundup
Issued by NWS State College, PA

Home | Current Version | Previous Version | Text Only | Print | Product List | Glossary On
Versions: 1 2 3 4 5 6 7 8 9 10 11 12 13 14 15 16 17 18 19 20 21 22 23 24 25 26 27 28 29 30 31 32 33 34 35 36 37 38 39 40 41 42 43 44 45 46 47 48 49 50
000
ASUS41 KCTP 300103
RWRCTP

REGIONAL WEATHER ROUNDUP
NATIONAL WEATHER SERVICE STATE COLLEGE PA
900 PM EDT FRI MAY 29 2015

Note: "fair" indicates few or no clouds below 12,000 feet with no
significant weather and/or obstructions to visibility.

* = STATION THAT DOES NOT REPORT PRECIPITATION /E.G. RAIN...SNOW...ETC/
    THUNDER OR FOG.

PAZ002>004-007>009-013>016-020>023-029>032-300200-
WESTERN PENNSYLVANIA

CITY           SKY/WX    TMP DP  RH WIND       PRES   REMARKS
ERIE           PTCLDY    76  63  64 S9        30.06S
MEADVILLE      PTCLDY    73  62  68 VRB6      30.11S
FRANKLIN*      PTCLDY    70  61  73 S13       30.15S
NEW CASTLE     MOCLDY    75  67  76 VRB5      30.12S
BEAVER COUNTY  CLEAR     73  66  78 SE6       30.13S
BUTLER*        PTCLDY    70  64  83 SE6       30.16S
PITTSBURGH INT PTCLDY    75  64  68 S6        30.13S
PITTSBURGH     PTCLDY    72  63  73 SE7       30.14S
INDIANA*       CLOUDY    68  68 100 CALM      30.20S
LATROBE        MOCLDY    73  66  78 S7        30.17F
WASHINGTON CO* PTCLDY    72  64  78 S5        30.16S
$$

PAZ004>006-010>012-017>019-024>028-033>037-041-042-045-046-049>053-300200-
CENTRAL PENNSYLVANIA

CITY           SKY/WX    TMP DP  RH WIND       PRES   REMARKS
BRADFORD       LGT RAIN  70  61  73 SW12G25   30.20R
DUBOIS         CLOUDY    69  64  84 SE3       30.18F
CLEARFIELD     LGT RAIN  70  65  84 W7        30.19R
JOHNSTOWN      CLOUDY    69  64  84 S12       30.22S
ALTOONA        CLOUDY    74  63  68 S7        30.20F
STATE COLLEGE  CLEAR     77  63  61 S6        30.18S
WILLIAMSPORT   MOCLDY    79  62  56 S10       30.14S
SELINSGROVE    MOCLDY    77  64  64 CALM      30.16F
FT INDIANTOWN  MOCLDY    77  67  69 S6        30.18S
CAPITAL CITY   MOCLDY    79  65  62 S7        30.17S
HARRISBURG     MOCLDY    79  66  64 S10       30.16S
YORK           MOCLDY    76  67  73 SE6       30.19S
$$

PAZ038>040-043-044-047-048-054-055-060>062-067>071-300200-
EASTERN PENNSYLVANIA

CITY           SKY/WX    TMP DP  RH WIND       PRES   REMARKS
SCRANTON       PTCLDY    77  57  50 CALM      30.19R
MOUNT POCONO   PTCLDY    69  56  62 S5        30.23F
ALLENTOWN      PTCLDY    80  62  54 SE7       30.18S
QUAKERTOWN*    PTCLDY    77  64  65 SE7       30.21S
READING        PTCLDY    79  64  60 S7        30.18R
LANCASTER      MOCLDY    76  65  68 S7        30.19S
COATESVILLE    PTCLDY    73  66  78 SE5       30.22S
POTTSTOWN      PTCLDY    77  65  66 S9        30.22R
BLUE BELL      PTCLDY    77  68  73 S7        30.21R
DOYLESTOWN     MOCLDY    74  61  63 VRB6      30.21R
WILLOW GROVE   NOT AVBL
NORTH PHILA    MOCLDY    75  59  57 SE9       30.23R
PHILADELPHIA   MOCLDY    77  65  66 S6        30.21S
$$


USA.gov is the U.S. government's official web portal to all federal, state and local government web resources and services.